Location: Unspecified
(0.0000°N, 0.0000°E)
Time: 06:36:24
(UTC+00:00)

Courier 1B Rocket - Pass Details

Date: 14 December 2018
Orbit: 920 x 1202 km, 28.2° (Epoch: 16 June)

Event Time Altitude Azimuth Distance (km) Brightness Sun altitude
Rises 03:24:31 0° 216° (SW) 3,604 - -34.0°
Exits shadow 03:26:50 - 205° (SSW) 2,930 7.5 -33.5°
Reaches altitude 10° 03:28:01 10° 198° (SSW) 2,630 7.3 -33.2°
Maximum altitude 03:32:19 19° 154° (SSE) 2,042 7.2 -32.3°
Drops below altitude 10° 03:36:34 10° 111° (ESE) 2,606 8.1 -31.4°
Sets 03:39:59 0° 93° (E) 3,559 8.9 -30.6°
